Time,TemperatureF,DewpointF,PressureIn,WindDirection,WindDirectionDegrees,WindSpeedMPH,WindSpeedGustMPH,Humidity,HourlyPrecipIn,Conditions,Clouds,dailyrainin,SoftwareType,DateUTC
2013-04-26 00:02:00,72.0,63.0,30.21,NNE,17,0.0,0.0,73,0.00,,,0.00,,2013-04-26 04:02:00,
2013-04-26 00:12:00,72.0,63.0,30.21,NNE,17,0.0,0.0,73,0.00,,,0.00,,2013-04-26 04:12:00,
2013-04-26 00:23:00,72.0,63.0,30.22,NNE,17,0.0,0.0,73,0.00,,,0.00,,2013-04-26 04:23:00,
2013-04-26 00:32:00,71.0,62.0,30.22,NNE,17,0.0,0.0,74,0.00,,,0.00,,2013-04-26 04:32:00,
2013-04-26 00:43:00,71.0,62.0,30.22,NNE,17,0.0,0.0,74,0.00,,,0.00,,2013-04-26 04:43:00,
2013-04-26 00:53:00,71.0,63.0,30.21,NNE,17,0.0,0.0,75,0.00,,,0.00,,2013-04-26 04:53:00,
2013-04-26 01:02:00,70.0,62.0,30.21,NNE,17,0.0,0.0,76,0.00,,,0.00,,2013-04-26 05:02:00,
2013-04-26 01:13:00,70.0,62.0,30.21,NNE,17,0.0,0.0,76,0.00,,,0.00,,2013-04-26 05:13:00,
2013-04-26 01:22:00,70.0,62.0,30.21,NNE,17,0.0,0.0,77,0.00,,,0.00,,2013-04-26 05:22:00,
2013-04-26 01:32:00,69.0,62.0,30.20,NNE,17,0.0,0.0,78,0.00,,,0.00,,2013-04-26 05:32:00,
2013-04-26 01:42:00,69.0,62.0,30.20,NNE,17,0.0,0.0,78,0.00,,,0.00,,2013-04-26 05:42:00,
2013-04-26 01:52:00,69.0,62.0,30.20,NNE,17,0.0,0.0,79,0.00,,,0.00,,2013-04-26 05:52:00,
2013-04-26 02:02:00,68.0,62.0,30.19,NNE,17,0.0,0.0,81,0.00,,,0.00,,2013-04-26 06:02:00,
2013-04-26 02:11:00,68.0,62.0,30.19,NNE,17,0.0,0.0,81,0.00,,,0.00,,2013-04-26 06:11:00,
2013-04-26 02:21:00,67.0,61.0,30.18,NNE,17,0.0,0.0,81,0.00,,,0.00,,2013-04-26 06:21:00,
2013-04-26 02:32:00,67.0,61.0,30.18,NNE,17,0.0,0.0,81,0.00,,,0.00,,2013-04-26 06:32:00,
2013-04-26 02:42:00,67.0,61.0,30.18,NNE,17,0.0,0.0,81,0.00,,,0.00,,2013-04-26 06:42:00,
2013-04-26 02:52:00,66.0,60.0,30.18,NNE,17,0.0,0.0,82,0.00,,,0.00,,2013-04-26 06:52:00,
2013-04-26 03:01:00,65.0,60.0,30.17,NNE,17,0.0,0.0,83,0.00,,,0.00,,2013-04-26 07:01:00,
2013-04-26 03:11:00,65.0,60.0,30.17,NNE,17,0.0,0.0,83,0.00,,,0.00,,2013-04-26 07:11:00,
2013-04-26 03:22:00,65.0,60.0,30.16,NNE,17,0.0,0.0,83,0.00,,,0.00,,2013-04-26 07:22:00,
2013-04-26 03:31:00,64.0,59.0,30.16,NNE,17,0.0,0.0,84,0.00,,,0.00,,2013-04-26 07:31:00,
2013-04-26 03:42:00,64.0,59.0,30.16,NNE,17,0.0,0.0,84,0.00,,,0.00,,2013-04-26 07:42:00,
2013-04-26 03:52:00,64.0,59.0,30.16,NNE,17,0.0,0.0,84,0.00,,,0.00,,2013-04-26 07:52:00,
2013-04-26 04:02:00,64.0,59.0,30.16,NNE,17,0.0,0.0,84,0.00,,,0.00,,2013-04-26 08:02:00,
2013-04-26 04:11:00,64.0,59.0,30.16,NNE,17,0.0,0.0,84,0.00,,,0.00,,2013-04-26 08:11:00,
2013-04-26 04:22:00,64.0,59.0,30.16,NNE,17,0.0,0.0,84,0.00,,,0.00,,2013-04-26 08:22:00,
2013-04-26 04:32:00,64.0,59.0,30.15,NNE,17,0.0,0.0,84,0.00,,,0.00,,2013-04-26 08:32:00,
2013-04-26 04:42:00,64.0,59.0,30.15,NNE,17,0.0,0.0,84,0.00,,,0.00,,2013-04-26 08:42:00,
2013-04-26 04:52:00,64.0,59.0,30.16,NNE,17,0.0,0.0,84,0.00,,,0.00,,2013-04-26 08:52:00,
2013-04-26 05:01:00,63.0,58.0,30.16,NNE,17,0.0,0.0,84,0.00,,,0.00,,2013-04-26 09:01:00,
2013-04-26 05:11:00,63.0,58.0,30.16,NNE,17,0.0,0.0,84,0.00,,,0.00,,2013-04-26 09:11:00,
2013-04-26 05:22:00,63.0,58.0,30.15,NNE,17,0.0,0.0,85,0.00,,,0.00,,2013-04-26 09:22:00,
2013-04-26 05:33:00,63.0,58.0,30.15,NNE,17,0.0,0.0,85,0.00,,,0.00,,2013-04-26 09:33:00,
2013-04-26 05:43:00,63.0,58.0,30.15,NNE,17,0.0,0.0,85,0.00,,,0.00,,2013-04-26 09:43:00,
2013-04-26 05:53:00,63.0,58.0,30.16,NNE,17,0.0,0.0,84,0.00,,,0.00,,2013-04-26 09:53:00,
2013-04-26 06:03:00,62.0,57.0,30.16,NNE,17,0.0,0.0,85,0.00,,,0.00,,2013-04-26 10:03:00,
2013-04-26 06:12:00,62.0,57.0,30.16,NNE,17,0.0,0.0,85,0.00,,,0.00,,2013-04-26 10:12:00,
2013-04-26 06:23:00,62.0,57.0,30.16,NNE,17,0.0,0.0,85,0.00,,,0.00,,2013-04-26 10:23:00,
2013-04-26 06:33:00,62.0,57.0,30.16,NNE,17,0.0,0.0,85,0.00,,,0.00,,2013-04-26 10:33:00,
2013-04-26 06:42:00,62.0,57.0,30.16,NNE,17,0.0,0.0,85,0.00,,,0.00,,2013-04-26 10:42:00,
2013-04-26 06:52:00,62.0,57.0,30.17,NNE,17,0.0,0.0,85,0.00,,,0.00,,2013-04-26 10:52:00,
2013-04-26 07:02:00,62.0,57.0,30.18,NNE,17,0.0,0.0,85,0.00,,,0.00,,2013-04-26 11:02:00,
2013-04-26 07:11:00,62.0,57.0,30.18,NNE,17,0.0,0.0,85,0.00,,,0.00,,2013-04-26 11:11:00,
2013-04-26 07:22:00,61.0,56.0,30.18,NE,46,0.0,0.0,85,0.00,,,0.00,,2013-04-26 11:22:00,
2013-04-26 07:32:00,61.0,56.0,30.19,NE,48,0.0,0.0,85,0.00,,,0.00,,2013-04-26 11:32:00,
2013-04-26 07:42:00,61.0,56.0,30.19,NE,48,0.0,0.0,85,0.00,,,0.00,,2013-04-26 11:42:00,
2013-04-26 07:52:00,63.0,59.0,30.20,NE,48,0.0,0.0,86,0.00,,,0.00,,2013-04-26 11:52:00,
2013-04-26 08:01:00,64.0,60.0,30.20,NE,48,0.0,0.0,86,0.00,,,0.00,,2013-04-26 12:01:00,
2013-04-26 08:11:00,64.0,60.0,30.20,NE,48,0.0,0.0,86,0.00,,,0.00,,2013-04-26 12:11:00,
2013-04-26 08:21:00,66.0,61.0,30.20,NE,48,0.0,0.0,85,0.00,,,0.00,,2013-04-26 12:21:00,
2013-04-26 08:32:00,67.0,62.0,30.21,ENE,70,0.0,0.0,84,0.00,,,0.00,,2013-04-26 12:32:00,
2013-04-26 08:42:00,67.0,62.0,30.21,ENE,70,0.0,0.0,84,0.00,,,0.00,,2013-04-26 12:42:00,
2013-04-26 08:52:00,69.0,64.0,30.21,ENE,69,0.0,0.0,84,0.00,,,0.00,,2013-04-26 12:52:00,
2013-04-26 09:01:00,70.0,64.0,30.21,ENE,72,0.0,0.0,82,0.00,,,0.00,,2013-04-26 13:01:00,
2013-04-26 09:11:00,70.0,64.0,30.21,ENE,72,0.0,0.0,82,0.00,,,0.00,,2013-04-26 13:11:00,
2013-04-26 09:22:00,72.0,65.0,30.21,ENE,72,0.0,0.0,79,0.00,,,0.00,,2013-04-26 13:22:00,
2013-04-26 09:32:00,74.0,65.0,30.22,East,95,1.0,3.0,74,0.00,,,0.00,,2013-04-26 13:32:00,
2013-04-26 09:42:00,74.0,65.0,30.22,East,95,1.0,3.0,74,0.00,,,0.00,,2013-04-26 13:42:00,
2013-04-26 09:52:00,74.0,64.0,30.22,East,101,0.0,4.0,70,0.00,,,0.00,,2013-04-26 13:52:00,
2013-04-26 10:01:00,74.0,63.0,30.23,SE,127,1.0,6.0,69,0.00,,,0.00,,2013-04-26 14:01:00,
2013-04-26 10:11:00,74.0,63.0,30.23,SE,127,1.0,6.0,69,0.00,,,0.00,,2013-04-26 14:11:00,
2013-04-26 10:21:00,76.0,65.0,30.23,ESE,120,0.0,4.0,69,0.00,,,0.00,,2013-04-26 14:21:00,
2013-04-26 10:32:00,76.0,64.0,30.24,SE,144,2.0,7.0,66,0.00,,,0.00,,2013-04-26 14:32:00,
2013-04-26 10:42:00,76.0,64.0,30.24,SE,144,2.0,7.0,66,0.00,,,0.00,,2013-04-26 14:42:00,
2013-04-26 10:52:00,78.0,65.0,30.24,ENE,70,0.0,4.0,64,0.00,,,0.00,,2013-04-26 14:52:00,
2013-04-26 11:01:00,78.0,64.0,30.24,South,172,3.0,8.0,62,0.00,,,0.00,,2013-04-26 15:01:00,
2013-04-26 11:12:00,78.0,64.0,30.24,South,172,3.0,8.0,62,0.00,,,0.00,,2013-04-26 15:12:00,
2013-04-26 11:21:00,79.0,64.0,30.24,ESE,120,1.0,7.0,60,0.00,,,0.00,,2013-04-26 15:21:00,
2013-04-26 11:33:00,80.0,64.0,30.24,East,91,1.0,6.0,58,0.00,,,0.00,,2013-04-26 15:33:00,
2013-04-26 11:43:00,80.0,64.0,30.24,East,91,1.0,6.0,58,0.00,,,0.00,,2013-04-26 15:43:00,
2013-04-26 11:53:00,81.0,64.0,30.24,NNE,27,3.0,8.0,56,0.00,,,0.00,,2013-04-26 15:53:00,
2013-04-26 12:03:00,81.0,63.0,30.24,ESE,102,2.0,6.0,55,0.00,,,0.00,,2013-04-26 16:03:00,
2013-04-26 12:12:00,81.0,63.0,30.24,ESE,102,2.0,6.0,55,0.00,,,0.00,,2013-04-26 16:12:00,
2013-04-26 12:23:00,82.0,63.0,30.24,ENE,63,4.0,11.0,53,0.00,,,0.00,,2013-04-26 16:23:00,
2013-04-26 12:33:00,82.0,64.0,30.24,ENE,69,4.0,10.0,54,0.00,,,0.00,,2013-04-26 16:33:00,
2013-04-26 12:42:00,82.0,64.0,30.24,ENE,69,4.0,10.0,54,0.00,,,0.00,,2013-04-26 16:42:00,
2013-04-26 12:53:00,83.0,65.0,30.23,East,92,5.0,9.0,55,0.00,,,0.00,,2013-04-26 16:53:00,
2013-04-26 13:02:00,83.0,65.0,30.22,ESE,112,4.0,11.0,55,0.00,,,0.00,,2013-04-26 17:02:00,
2013-04-26 13:12:00,83.0,65.0,30.22,ESE,112,4.0,11.0,55,0.00,,,0.00,,2013-04-26 17:12:00,
2013-04-26 13:22:00,83.0,64.0,30.22,ESE,109,5.0,11.0,53,0.00,,,0.00,,2013-04-26 17:22:00,
2013-04-26 13:32:00,84.0,65.0,30.21,NE,44,5.0,16.0,53,0.00,,,0.00,,2013-04-26 17:32:00,
2013-04-26 13:42:00,84.0,65.0,30.21,NE,44,5.0,16.0,53,0.00,,,0.00,,2013-04-26 17:42:00,
2013-04-26 13:52:00,84.0,65.0,30.21,ENE,70,5.0,12.0,53,0.00,,,0.00,,2013-04-26 17:52:00,
2013-04-26 14:02:00,84.0,64.0,30.20,ENE,60,5.0,12.0,52,0.00,,,0.00,,2013-04-26 18:02:00,
2013-04-26 14:12:00,83.0,64.0,30.20,East,91,6.0,9.0,53,0.00,,,0.00,,2013-04-26 18:12:00,
2013-04-26 14:22:00,83.0,64.0,30.20,East,91,6.0,9.0,53,0.00,,,0.00,,2013-04-26 18:22:00,
2013-04-26 14:33:00,84.0,66.0,30.20,East,101,3.0,12.0,54,0.00,,,0.00,,2013-04-26 18:33:00,
2013-04-26 14:42:00,84.0,66.0,30.20,East,101,3.0,12.0,54,0.00,,,0.00,,2013-04-26 18:42:00,
2013-04-26 14:52:00,86.0,65.0,30.20,ESE,108,6.0,13.0,49,0.00,,,0.00,,2013-04-26 18:52:00,
2013-04-26 15:01:00,86.0,65.0,30.19,SE,139,4.0,10.0,50,0.00,,,0.00,,2013-04-26 19:01:00,
2013-04-26 15:12:00,86.0,65.0,30.19,SE,139,4.0,10.0,50,0.00,,,0.00,,2013-04-26 19:12:00,
2013-04-26 15:22:00,86.0,65.0,30.19,East,84,7.0,11.0,49,0.00,,,0.00,,2013-04-26 19:22:00,
2013-04-26 15:32:00,86.0,65.0,30.18,East,89,4.0,13.0,49,0.00,,,0.00,,2013-04-26 19:32:00,
2013-04-26 15:42:00,86.0,65.0,30.18,East,89,4.0,13.0,49,0.00,,,0.00,,2013-04-26 19:42:00,
2013-04-26 15:52:00,85.0,65.0,30.18,SSE,149,1.0,9.0,51,0.00,,,0.00,,2013-04-26 19:52:00,
2013-04-26 16:02:00,87.0,65.0,30.17,East,94,5.0,9.0,48,0.00,,,0.00,,2013-04-26 20:02:00,
2013-04-26 16:11:00,86.0,65.0,30.16,SE,125,4.0,12.0,50,0.00,,,0.00,,2013-04-26 20:11:00,
2013-04-26 16:22:00,86.0,65.0,30.16,SE,125,4.0,12.0,50,0.00,,,0.00,,2013-04-26 20:22:00,
2013-04-26 16:32:00,87.0,65.0,30.16,ENE,65,3.0,8.0,49,0.00,,,0.00,,2013-04-26 20:32:00,
2013-04-26 16:42:00,87.0,65.0,30.16,ENE,65,3.0,8.0,49,0.00,,,0.00,,2013-04-26 20:42:00,
2013-04-26 16:52:00,87.0,65.0,30.16,ENE,64,1.0,7.0,49,0.00,,,0.00,,2013-04-26 20:52:00,
2013-04-26 17:02:00,85.0,65.0,30.15,ESE,104,4.0,10.0,51,0.00,,,0.00,,2013-04-26 21:02:00,
2013-04-26 17:11:00,85.0,65.0,30.15,ESE,104,4.0,10.0,51,0.00,,,0.00,,2013-04-26 21:11:00,
2013-04-26 17:22:00,86.0,65.0,30.15,ESE,110,5.0,8.0,50,0.00,,,0.00,,2013-04-26 21:22:00,
2013-04-26 17:33:00,85.0,65.0,30.15,ESE,115,4.0,12.0,51,0.00,,,0.00,,2013-04-26 21:33:00,
2013-04-26 17:42:00,85.0,65.0,30.15,ESE,115,4.0,12.0,51,0.00,,,0.00,,2013-04-26 21:42:00,
2013-04-26 17:53:00,85.0,65.0,30.14,ESE,111,2.0,9.0,51,0.00,,,0.00,,2013-04-26 21:53:00,
2013-04-26 18:03:00,84.0,64.0,30.14,SE,124,4.0,11.0,52,0.00,,,0.00,,2013-04-26 22:03:00,
2013-04-26 18:12:00,84.0,64.0,30.14,SE,124,4.0,11.0,52,0.00,,,0.00,,2013-04-26 22:12:00,
2013-04-26 18:23:00,85.0,65.0,30.14,East,99,6.0,9.0,52,0.00,,,0.00,,2013-04-26 22:23:00,
2013-04-26 18:33:00,84.0,64.0,30.15,ENE,78,5.0,9.0,51,0.00,,,0.00,,2013-04-26 22:33:00,
2013-04-26 18:42:00,84.0,64.0,30.15,ENE,78,5.0,9.0,51,0.00,,,0.00,,2013-04-26 22:42:00,
2013-04-26 18:52:00,84.0,64.0,30.14,SSE,149,5.0,14.0,52,0.00,,,0.00,,2013-04-26 22:52:00,
2013-04-26 19:02:00,83.0,65.0,30.15,ESE,110,3.0,12.0,54,0.00,,,0.00,,2013-04-26 23:02:00,
2013-04-26 19:12:00,83.0,65.0,30.15,ESE,110,3.0,12.0,54,0.00,,,0.00,,2013-04-26 23:12:00,
2013-04-26 19:21:00,83.0,65.0,30.15,SSE,150,4.0,9.0,54,0.00,,,0.00,,2013-04-26 23:21:00,
2013-04-26 19:32:00,82.0,64.0,30.16,SE,133,4.0,11.0,55,0.00,,,0.00,,2013-04-26 23:32:00,
2013-04-26 19:42:00,82.0,64.0,30.16,SE,133,4.0,11.0,55,0.00,,,0.00,,2013-04-26 23:42:00,
2013-04-26 19:52:00,81.0,63.0,30.16,ESE,104,2.0,7.0,55,0.00,,,0.00,,2013-04-26 23:52:00,
2013-04-26 20:01:00,80.0,63.0,30.16,SE,131,0.0,6.0,56,0.00,,,0.00,,2013-04-27 00:01:00,
2013-04-26 20:11:00,80.0,63.0,30.16,SE,131,0.0,6.0,56,0.00,,,0.00,,2013-04-27 00:11:00,
2013-04-26 20:21:00,80.0,64.0,30.16,SE,127,0.0,1.0,58,0.00,,,0.00,,2013-04-27 00:21:00,
2013-04-26 20:32:00,79.0,63.0,30.17,SE,127,0.0,2.0,59,0.00,,,0.00,,2013-04-27 00:32:00,
2013-04-26 20:42:00,79.0,63.0,30.17,SE,127,0.0,2.0,59,0.00,,,0.00,,2013-04-27 00:42:00,
2013-04-26 20:52:00,78.0,63.0,30.17,SE,127,0.0,0.0,61,0.00,,,0.00,,2013-04-27 00:52:00,
2013-04-26 21:01:00,78.0,64.0,30.18,SE,127,0.0,0.0,62,0.00,,,0.00,,2013-04-27 01:01:00,
2013-04-26 21:12:00,78.0,64.0,30.18,SE,127,0.0,0.0,62,0.00,,,0.00,,2013-04-27 01:12:00,
2013-04-26 21:21:00,77.0,63.0,30.18,ESE,104,0.0,5.0,63,0.00,,,0.00,,2013-04-27 01:21:00,
2013-04-26 21:32:00,76.0,63.0,30.18,ESE,104,0.0,0.0,65,0.00,,,0.00,,2013-04-27 01:32:00,
2013-04-26 21:42:00,76.0,63.0,30.18,ESE,104,0.0,0.0,65,0.00,,,0.00,,2013-04-27 01:42:00,
2013-04-26 21:52:00,76.0,64.0,30.19,ESE,105,0.0,0.0,66,0.00,,,0.00,,2013-04-27 01:52:00,
2013-04-26 22:02:00,75.0,63.0,30.19,ESE,105,0.0,0.0,67,0.00,,,0.00,,2013-04-27 02:02:00,
2013-04-26 22:11:00,75.0,63.0,30.19,ESE,105,0.0,0.0,67,0.00,,,0.00,,2013-04-27 02:11:00,
2013-04-26 22:22:00,75.0,64.0,30.20,ESE,104,0.0,0.0,68,0.00,,,0.00,,2013-04-27 02:22:00,
2013-04-26 22:32:00,74.0,64.0,30.21,ESE,104,0.0,0.0,70,0.00,,,0.00,,2013-04-27 02:32:00,
2013-04-26 22:42:00,74.0,64.0,30.21,ESE,104,0.0,0.0,70,0.00,,,0.00,,2013-04-27 02:42:00,
2013-04-26 22:52:00,74.0,64.0,30.21,ESE,104,0.0,0.0,71,0.00,,,0.00,,2013-04-27 02:52:00,
2013-04-26 23:02:00,74.0,64.0,30.21,ESE,105,0.0,0.0,72,0.00,,,0.00,,2013-04-27 03:02:00,
2013-04-26 23:11:00,74.0,64.0,30.21,ESE,105,0.0,0.0,72,0.00,,,0.00,,2013-04-27 03:11:00,
2013-04-26 23:22:00,74.0,65.0,30.22,ESE,105,0.0,0.0,73,0.00,,,0.00,,2013-04-27 03:22:00,
2013-04-26 23:33:00,73.0,64.0,30.22,ESE,104,0.0,0.0,74,0.00,,,0.00,,2013-04-27 03:33:00,
2013-04-26 23:43:00,73.0,64.0,30.22,ESE,104,0.0,0.0,74,0.00,,,0.00,,2013-04-27 03:43:00,
2013-04-26 23:53:00,73.0,65.0,30.22,ESE,104,0.0,0.0,75,0.00,,,0.00,,2013-04-27 03:53:00,